This demonstration page uses our WeatherBlox Daily Observations layout. Learn more.

Left ArrowRight Arrow

44.8408, -93.29828

Hourly Observations for September 12, 2021

Temp ( °F °C ) Dew Point ( °F °C ) Humidity (%) Winds ( mph kmh ) Pressure ( in mb ) Visibility ( mi km ) Precip ( " mm )
12:53 am 00:53 Partly Cloudy 64 17.8 47 8.3 54 54 NNE 10 17 29.95 1014 10 16 0.00 0.00
1:53 am 01:53 Mostly Cloudy 63 17.2 46 7.8 54 54 NNE 9 15 29.96 1014 10 16 0.00 0.00
2:53 am 02:53 Partly Cloudy 61 16.1 46 7.8 58 58 NNE 8 13 29.96 1014 10 16 0.00 0.00
3:53 am 03:53 Cloudy 61 16.1 46 7.8 58 58 NE 6 9 29.97 1015 10 16 0.00 0.00
4:53 am 04:53 Cloudy 60 15.6 46 7.8 60 60 N 6 9 30.01 1016 10 16 0.00 0.00
5:53 am 05:53 Mostly Cloudy 59 15 46 7.8 62 62 NNE 10 17 29.99 1016 10 16 0.00 0.00
6:53 am 06:53 Mostly Cloudy 57 13.9 47 8.3 69 69 NW 7 11 30.05 1018 10 16 0.00 0.00
7:53 am 07:53 Cloudy 59 15 46 7.8 62 62 VRB 7 11 30.08 1019 10 16 0.00 0.00
8:53 am 08:53 Cloudy 58 14.4 47 8.3 67 67 NNE 20 31 29.96 1015 10 16 0.00 0.00
9:29 am 09:29 Cloudy 60 15.6 46 7.8 60 60 NNE 8 13 30.02 1017 10 16 0.00 0.00
9:53 am 09:53 Cloudy 62 16.7 47 8.3 58 58 Calm 30.07 1018 10 16 0.00 0.00
10:53 am 10:53 Cloudy 63 17.2 47 8.3 56 56 NNE 8 13 30.06 1018 10 16 0.00 0.00
11:53 am 11:53 Mostly Cloudy 64 17.8 48 8.9 56 56 VRB 5 7 30.09 1019 10 16 0.00 0.00
12:53 pm 12:53 Cloudy 64 17.8 47 8.3 54 54 WSW 5 7 30.11 1020 10 16 0.00 0.00
1:53 pm 13:53 Mostly Cloudy 66 18.9 49 9.4 54 54 NNW 8 13 30.07 1018 10 16 0.00 0.00
2:53 pm 14:53 Mostly Cloudy 68 20 47 8.3 47 47 N 9 15 30.07 1018 10 16 0.00 0.00
3:53 pm 15:53 Partly Cloudy 72 22.2 44 6.7 37 37 N 8 13 30.06 1018 10 16 0.00 0.00
4:53 pm 16:53 Mostly Sunny 72 22.2 44 6.7 37 37 NW 9 15 30.06 1018 10 16 0.00 0.00
5:53 pm 17:53 Mostly Sunny 71 21.7 46 7.8 41 41 N 7 11 30.06 1018 10 16 0.00 0.00
6:53 pm 18:53 Mostly Sunny 69 20.6 47 8.3 45 45 NNW 5 7 30.06 1018 10 16 0.00 0.00
7:53 pm 19:53 Mostly Clear 69 20.6 46 7.8 44 44 Calm 30.07 1018 10 16 0.00 0.00
8:53 pm 20:53 Clear 66 18.9 46 7.8 49 49 SSE 3 6 30.08 1019 10 16 0.00 0.00
9:53 pm 21:53 Clear 64 17.8 48 8.9 56 56 Calm 30.08 1019 10 16 0.00 0.00
10:53 pm 22:53 Clear 62 16.7 48 8.9 60 60 SSE 3 6 30.09 1019 10 16 0.00 0.00
11:53 pm 23:53 Clear 59 15 50 10 72 72 NE 3 6 30.09 1019 10 16 0.00 0.00

Powered by AerisWeather